Location: Amon Carter Post Office
(32.8281°N, 97.0484°W)
Time: 16:43:03
(UTC+00:00)

Meteor 2-15 Rocket - Pass Details

Date: 14 July 2022
Orbit: 939 x 956 km, 82.5° (Epoch: 13 August)

Event Time Altitude Azimuth Distance (km) Brightness Sun altitude
Rises 09:08:21 0° 5° (N) 3,632 8.4 -24.2°
Reaches altitude 10° 09:11:11 10° 16° (NNE) 2,680 7.7 -23.9°
Maximum altitude 09:16:30 30° 77° (ENE) 1,616 6.1 -23.1°
Drops below altitude 10° 09:21:47 10° 137° (SE) 2,658 6.7 -22.4°
Sets 09:24:33 0° 148° (SSE) 3,596 7.3 -22.0°
